FW5926 Weather Reports


time (UTC)temp
C
wind
direction
speed
KPH
gust
KPH
rain 1hr
cm
rain 24hr
cm
rain mn
cm
humidity
%
barometer
mb
20260508214104 16 239 3.2 16.1 0.00 0.00 0.00 64 1007.7
20260508213604 16 277 4.8 11.3 0.00 0.00 0.00 64 1007.7
20260508213104 16 171 4.8 11.3 0.00 0.00 0.00 64 1007.7
20260508212605 16 198 4.8 11.3 0.00 0.00 0.00 65 1007.8
20260508211604 16 167 4.8 14.5 0.00 0.00 0.00 65 1007.8
20260508211103 16 227 4.8 11.3 0.00 0.00 0.00 65 1007.8
20260508210604 16 169 4.8 11.3 0.00 0.00 0.00 64 1007.9
20260508210104 16 173 3.2 11.3 0.00 0.00 0.00 62 1007.9
20260508205605 16 179 3.2 9.7 0.00 0.00 0.00 58 1007.8
20260508205104 17 197 8.0 19.3 0.00 0.00 0.00 54 1007.9
20260508204604 17 269 6.4 14.5 0.00 0.00 0.00 49 1007.9
20260508204105 17 273 6.4 14.5 0.00 0.00 0.00 46 1008.0
20260508203604 17 208 4.8 20.9 0.00 0.00 0.00 47 1008.1
20260508203104 17 214 4.8 20.9 0.00 0.00 0.00 48 1008.0
20260508202604 17 261 4.8 24.1 0.00 0.00 0.00 46 1008.2
20260508201604 17 171 6.4 14.5 0.00 0.00 0.00 47 1008.2
20260508201104 17 252 4.8 14.5 0.00 0.00 0.00 49 1008.2
20260508200604 17 186 4.8 14.5 0.00 0.00 0.00 48 1008.4
20260508200105 17 277 8.0 19.3 0.00 0.00 0.00 47 1008.5
20260508195604 17 264 11.3 20.9 0.00 0.00 0.00 47 1008.4
20260508195104 17 212 4.8 12.9 0.00 0.00 0.00 50 1008.5
20260508194604 17 257 4.8 20.9 0.00 0.00 0.00 48 1008.6
20260508194104 17 230 4.8 19.3 0.00 0.00 0.00 48 1008.8
20260508193604 17 281 9.7 20.9 0.00 0.00 0.00 47 1009.0
20260508193103 17 269 11.3 20.9 0.00 0.00 0.00 48 1009.0
20260508192603 17 172 8.0 12.9 0.00 0.00 0.00 51 1009.1
20260508192104 16 255 8.0 19.3 0.00 0.00 0.00 49 1009.2
20260508191604 16 230 4.8 11.3 0.00 0.00 0.00 48 1009.3
20260508191105 16 214 9.7 19.3 0.00 0.00 0.00 48 1009.4
20260508190604 16 269 6.4 11.3 0.00 0.00 0.00 48 1009.4
20260508190105 16 191 6.4 19.3 0.00 0.00 0.00 49 1009.5
20260508185105 16 285 4.8 14.5 0.00 0.00 0.00 52 1009.6
20260508184604 16 273 8.0 14.5 0.00 0.00 0.00 53 1009.7
20260508184104 16 286 4.8 19.3 0.00 0.00 0.00 53 1009.7
20260508182604 16 172 4.8 12.9 0.00 0.00 0.00 55 1009.7
20260508182104 16 226 9.7 19.3 0.00 0.00 0.00 53 1009.8
20260508181604 16 289 8.0 12.9 0.00 0.00 0.00 55 1010.0
20260508181104 16 267 9.7 14.5 0.00 0.00 0.00 57 1010.0
20260508180604 16 280 8.0 14.5 0.00 0.00 0.00 58 1009.9
20260508180104 16 154 4.8 12.9 0.00 0.00 0.00 58 1009.9
20260508175605 16 215 1.6 11.3 0.00 0.00 0.00 58 1010.0
20260508174604 16 283 3.2 9.7 0.00 0.00 0.00 60 1010.2
20260508174104 16 184 4.8 19.3 0.00 0.00 0.00 60 1010.2
20260508173604 16 153 6.4 11.3 0.00 0.00 0.00 61 1010.3
20260508173105 15 163 4.8 12.9 0.00 0.00 0.00 62 1010.1
20260508172605 15 262 8.0 14.5 0.00 0.00 0.00 61 1010.2
20260508172104 15 206 4.8 14.5 0.00 0.00 0.00 61 1010.3
20260508171604 15 145 3.2 11.3 0.00 0.00 0.00 62 1010.5
20260508171104 15 316 4.8 14.5 0.00 0.00 0.00 56 1010.6
20260508170604 15 264 9.7 14.5 0.00 0.00 0.00 55 1010.6
20260508170105 15 302 4.8 14.5 0.00 0.00 0.00 57 1010.7
20260508165605 15 270 6.4 11.3 0.00 0.00 0.00 60 1010.9
20260508165104 15 108 3.2 12.9 0.00 0.00 0.00 61 1010.9
20260508164604 15 150 3.2 12.9 0.00 0.00 0.00 60 1011.1
20260508163604 14 308 9.7 14.5 0.00 0.00 0.00 59 1011.1
20260508163104 15 341 4.8 9.7 0.00 0.00 0.00 57 1011.1
20260508162604 15 231 3.2 12.9 0.00 0.00 0.00 60 1011.2
20260508162104 15 147 8.0 16.1 0.00 0.00 0.00 61 1011.0
20260508161604 14 261 4.8 9.7 0.00 0.00 0.00 60 1011.3
20260508160605 13 229 3.2 11.3 0.00 0.00 0.00 62 1011.4
20260508160106 13 103 4.8 12.9 0.00 0.00 0.00 63 1011.4
20260508155604 13 290 3.2 4.8 0.00 0.00 0.00 62 1011.5
20260508155104 13 292 1.6 8.0 0.00 0.00 0.00 62 1011.5
20260508154604 13 314 4.8 12.9 0.00 0.00 0.00 62 1011.5
20260508154104 13 288 3.2 4.8 0.00 0.00 0.00 64 1011.6
20260508153604 13 246 8.0 19.3 0.00 0.00 0.00 67 1011.7
20260508153104 13 79 4.8 9.7 0.00 0.00 0.00 68 1011.7
20260508152604 13 34 6.4 12.9 0.00 0.00 0.00 69 1011.7
20260508152104 12 36 1.6 4.8 0.00 0.00 0.00 69 1011.7
20260508151604 12 358 3.2 8.0 0.00 0.00 0.00 69 1011.8
20260508150604 12 335 3.2 4.8 0.00 0.00 0.00 70 1012.0
20260508150104 12 329 3.2 4.8 0.00 0.00 0.00 71 1011.9
20260508145604 12 321 3.2 4.8 0.00 0.00 0.00 71 1011.9
20260508145104 12 340 3.2 8.0 0.00 0.00 0.00 70 1011.8
20260508144604 12 5 1.6 4.8 0.00 0.00 0.00 70 1011.8
20260508143604 12 2 4.8 14.5 0.00 0.00 0.00 70 1011.8
20260508143105 12 0 3.2 8.0 0.00 0.00 0.00 72 1011.7
20260508142604 12 49 1.6 4.8 0.00 0.00 0.00 72 1011.8
20260508141604 11 339 4.8 9.7 0.00 0.00 0.00 74 1011.9
20260508141104 11 323 4.8 8.0 0.00 0.00 0.00 74 1012.0
20260508140105 11 347 4.8 9.7 0.00 0.00 0.00 76 1012.0
20260508134604 10 357 4.8 9.7 0.00 0.00 0.00 80 1011.9
20260508133604 10 314 3.2 9.7 0.00 0.00 0.00 81 1011.8
20260508132604 10 277 4.8 11.3 0.00 0.00 0.00 82 1011.9
20260508131604 10 335 6.4 9.7 0.00 0.00 0.00 84 1011.9
20260508131104 9 323 1.6 4.8 0.00 0.00 0.00 84 1011.9
20260508130604 9 324 3.2 4.8 0.00 0.00 0.00 84 1011.9
20260508130106 8 272 3.2 4.8 0.00 0.00 0.00 85 1011.9
20260508125604 8 265 3.2 8.0 0.00 0.00 0.00 85 1012.0
20260508124604 8 289 3.2 8.0 0.00 0.00 0.00 85 1012.0
20260508124104 8 263 4.8 12.9 0.00 0.00 0.00 85 1012.0
20260508123604 8 261 3.2 11.3 0.00 0.00 0.00 85 1012.1
20260508123104 8 261 6.4 11.3 0.00 0.00 0.00 85 1011.9
20260508122604 8 277 4.8 9.7 0.00 0.00 0.00 86 1012.0
20260508122104 7 301 3.2 8.0 0.00 0.00 0.00 85 1011.9
20260508121604 7 275 4.8 9.7 0.00 0.00 0.00 86 1011.8
20260508121104 7 269 1.6 9.7 0.00 0.00 0.00 86 1011.8
20260508120604 7 281 3.2 4.8 0.00 0.00 0.00 86 1011.8
20260508120105 7 280 1.6 4.8 0.00 0.00 0.00 86 1011.7
20260508115604 6 280 1.6 4.8 0.00 0.00 0.00 86 1011.8
20260508115104 6 267 1.6 4.8 0.00 0.00 0.00 86 1011.8
20260508114604 6 267 1.6 3.2 0.00 0.00 0.00 86 1011.7
20260508114104 6 267 1.6 3.2 0.00 0.00 0.00 86 1011.7
20260508113604 6 267 1.6 4.8 0.00 0.00 0.00 86 1011.6
20260508113104 6 267 1.6 3.2 0.00 0.00 0.00 86 1011.6
20260508112605 6 267 0.0 1.6 0.00 0.00 0.00 86 1011.5
20260508112104 5 267 1.6 3.2 0.00 0.00 0.00 86 1011.6
20260508111604 5 267 0.0 3.2 0.00 0.00 0.00 86 1011.5
20260508111104 5 267 0.0 1.6 0.00 0.00 0.00 86 1011.5
20260508110105 5 267 0.0 1.6 0.00 0.00 0.00 86 1011.3
20260508105104 5 267 0.0 0.0 0.00 0.00 0.00 86 1011.3
20260508104105 5 267 0.0 0.0 0.00 0.00 0.00 85 1011.2
20260508103604 5 267 0.0 0.0 0.00 0.00 0.00 85 1011.2
20260508103104 5 267 0.0 0.0 0.00 0.00 0.00 86 1011.2
20260508102604 5 267 0.0 1.6 0.00 0.00 0.00 86 1011.2
20260508102104 5 267 1.6 3.2 0.00 0.00 0.00 86 1011.2
20260508101604 5 267 0.0 0.0 0.00 0.00 0.00 86 1011.2
20260508101104 5 267 0.0 0.0 0.00 0.00 0.00 86 1011.2
20260508100604 5 267 0.0 0.0 0.00 0.00 0.00 86 1011.2
20260508095605 5 267 0.0 0.0 0.00 0.00 0.00 85 1011.3
20260508095103 5 267 0.0 0.0 0.00 0.00 0.00 86 1011.3
20260508094603 5 267 0.0 3.2 0.00 0.00 0.00 86 1011.4
20260508094104 5 267 0.0 0.0 0.00 0.00 0.00 86 1011.4
20260508093604 5 267 1.6 1.6 0.00 0.00 0.00 85 1011.4
20260508093104 5 267 1.6 3.2 0.00 0.00 0.00 85 1011.3
20260508092604 5 267 0.0 1.6 0.00 0.00 0.00 86 1011.3
20260508091105 5 267 0.0 3.2 0.00 0.00 0.00 85 1011.2
20260508090604 5 267 0.0 3.2 0.00 0.00 0.00 85 1011.2
20260508090105 5 267 1.6 3.2 0.00 0.00 0.00 85 1011.3
20260508085605 5 267 0.0 1.6 0.00 0.00 0.00 85 1011.3
20260508085104 5 268 0.0 1.6 0.00 0.00 0.00 85 1011.2
20260508084604 5 268 0.0 0.0 0.00 0.00 0.00 85 1011.3
20260508084104 5 268 0.0 0.0 0.00 0.00 0.00 85 1011.3
20260508083604 5 268 0.0 0.0 0.00 0.00 0.00 85 1011.3
20260508083104 6 268 0.0 0.0 0.00 0.00 0.00 85 1011.3
20260508082604 6 268 0.0 0.0 0.00 0.00 0.00 85 1011.3
20260508082104 6 268 0.0 0.0 0.00 0.00 0.00 84 1011.3
20260508081605 6 268 0.0 0.0 0.00 0.00 0.00 84 1011.3
20260508081105 6 268 0.0 0.0 0.00 0.00 0.00 84 1011.4
20260508080605 6 268 0.0 1.6 0.00 0.00 0.00 84 1011.5
20260508080105 6 267 0.0 1.6 0.00 0.00 0.00 84 1011.4
20260508075604 6 268 0.0 0.0 0.00 0.00 0.00 84 1011.5
20260508075104 6 268 0.0 0.0 0.00 0.00 0.00 84 1011.4
20260508074604 6 268 0.0 0.0 0.00 0.00 0.00 84 1011.4
20260508074104 6 268 0.0 4.8 0.00 0.00 0.00 84 1011.4
20260508073604 6 268 1.6 4.8 0.00 0.00 0.00 84 1011.5
20260508073104 6 267 1.6 4.8 0.00 0.00 0.00 83 1011.5
20260508072604 7 267 0.0 1.6 0.00 0.00 0.00 83 1011.5
20260508072104 7 267 0.0 1.6 0.00 0.00 0.00 83 1011.5
20260508071104 7 268 0.0 4.8 0.00 0.00 0.00 83 1011.6
20260508070604 7 267 1.6 3.2 0.00 0.00 0.00 83 1011.6
20260508065605 7 274 1.6 4.8 0.00 0.00 0.00 83 1011.7
20260508065105 7 267 1.6 4.8 0.00 0.00 0.00 83 1011.7
20260508064104 7 269 1.6 4.8 0.00 0.00 0.00 83 1011.7
20260508063605 7 269 1.6 4.8 0.00 0.00 0.00 83 1011.6
20260508062604 7 269 0.0 4.8 0.00 0.00 0.00 82 1011.7
20260508062104 7 269 0.0 3.2 0.00 0.00 0.00 82 1011.7
20260508061605 7 270 1.6 4.8 0.00 0.00 0.00 82 1011.7
20260508061104 7 266 1.6 4.8 0.00 0.00 0.00 81 1011.8
20260508060604 7 267 1.6 4.8 0.00 0.00 0.00 81 1011.7
20260508060105 7 267 0.0 1.6 0.00 0.00 0.00 81 1011.7
20260508055604 7 263 1.6 3.2 0.00 0.00 0.00 81 1011.8
20260508055104 7 263 1.6 4.8 0.00 0.00 0.00 80 1011.8
20260508054604 7 263 1.6 4.8 0.00 0.00 0.00 80 1011.8
20260508054104 7 275 1.6 3.2 0.00 0.00 0.00 80 1011.8
20260508053604 7 275 1.6 4.8 0.00 0.00 0.00 80 1011.9
20260508053105 7 276 1.6 4.8 0.00 0.00 0.00 80 1012.0
20260508052604 7 274 3.2 4.8 0.00 0.00 0.00 79 1012.0
20260508052105 7 261 1.6 4.8 0.00 0.00 0.00 79 1012.0
20260508051104 7 249 1.6 3.2 0.00 0.00 0.00 78 1012.0
20260508050604 7 234 1.6 3.2 0.00 0.00 0.00 78 1011.9
20260508050104 7 231 0.0 3.2 0.00 0.00 0.00 77 1012.0
20260508045604 7 232 0.0 1.6 0.00 0.00 0.00 77 1012.0
20260508044604 7 234 0.0 3.2 0.00 0.00 0.00 76 1011.9
20260508044105 7 234 0.0 3.2 0.00 0.00 0.00 76 1011.8
20260508043605 7 234 0.0 3.2 0.00 0.00 0.00 76 1011.8
20260508042605 8 234 0.0 1.6 0.00 0.00 0.00 75 1011.7
20260508042104 8 234 0.0 1.6 0.00 0.00 0.00 74 1011.6
20260508041604 8 234 0.0 1.6 0.00 0.00 0.00 74 1011.7
20260508041105 8 234 1.6 3.2 0.00 0.00 0.00 74 1011.8
20260508040606 8 234 0.0 1.6 0.00 0.00 0.00 73 1011.8
20260508040106 8 234 0.0 1.6 0.00 0.00 0.00 73 1011.8
20260508035605 8 234 0.0 3.2 0.00 0.00 0.00 73 1011.8
20260508035104 8 235 0.0 3.2 0.00 0.00 0.00 72 1011.8
20260508034605 8 235 0.0 3.2 0.00 0.00 0.00 72 1011.8
20260508034104 8 235 0.0 1.6 0.00 0.00 0.00 71 1011.9
20260508033604 8 235 0.0 3.2 0.00 0.00 0.00 72 1012.0
20260508032104 9 244 0.0 3.2 0.00 0.00 0.00 70 1012.1
20260508031604 9 206 0.0 1.6 0.00 0.00 0.00 70 1012.1
20260508031104 9 207 1.6 4.8 0.00 0.00 0.00 69 1012.2
20260508030605 9 268 0.0 3.2 0.00 0.00 0.00 69 1012.2
20260508030106 9 268 1.6 4.8 0.00 0.00 0.00 69 1012.3
20260508025604 9 270 0.0 3.2 0.00 0.00 0.00 68 1012.3
20260508024604 10 254 3.2 4.8 0.00 0.00 0.00 68 1012.4
20260508024105 10 245 1.6 3.2 0.00 0.00 0.00 68 1012.3
20260508023605 10 222 0.0 4.8 0.00 0.00 0.00 67 1012.3
20260508023105 10 228 1.6 4.8 0.00 0.00 0.00 67 1012.2
20260508022604 10 190 1.6 8.0 0.00 0.00 0.00 67 1012.2
20260508022104 10 266 8.0 16.1 0.00 0.00 0.00 66 1012.2
20260508021605 10 242 3.2 11.3 0.00 0.00 0.00 66 1012.2
20260508021104 10 264 4.8 12.9 0.00 0.00 0.00 66 1012.1
20260508020604 10 275 3.2 8.0 0.00 0.00 0.00 66 1012.0
20260508020106 10 214 8.0 19.3 0.00 0.00 0.00 65 1012.1
20260508015605 10 148 3.2 11.3 0.00 0.00 0.00 65 1012.1
20260508014104 10 177 3.2 11.3 0.00 0.00 0.00 63 1012.1
20260508013605 10 269 4.8 19.3 0.00 0.00 0.00 62 1012.1
20260508013104 10 247 4.8 14.5 0.00 0.00 0.00 62 1012.1
20260508012604 10 209 3.2 8.0 0.00 0.00 0.00 62 1012.0
20260508012105 10 200 3.2 12.9 0.00 0.00 0.00 61 1011.9
20260508011604 10 257 4.8 14.5 0.00 0.00 0.00 60 1011.9
20260508011104 11 245 3.2 14.5 0.00 0.00 0.00 59 1011.9
20260508010604 11 290 4.8 14.5 0.00 0.00 0.00 59 1011.8
20260508005605 11 247 8.0 19.3 0.00 0.00 0.00 56 1011.8
20260508005105 11 156 4.8 12.9 0.00 0.00 0.00 55 1011.6
20260508004604 11 232 8.0 20.9 0.00 0.00 0.00 54 1011.6
20260508004105 12 161 4.8 11.3 0.00 0.00 0.00 52 1011.6
20260508003604 12 251 3.2 9.7 0.00 0.00 0.00 50 1011.5
20260508003104 12 269 4.8 14.5 0.00 0.00 0.00 49 1011.4
20260508002604 12 254 4.8 9.7 0.00 0.00 0.00 49 1011.4
20260508002104 12 276 1.6 9.7 0.00 0.00 0.00 48 1011.3
20260508001605 12 266 4.8 12.9 0.00 0.00 0.00 48 1011.3
20260508000604 12 265 4.8 19.3 0.00 0.00 0.00 47 1011.4
20260508000105 12 268 8.0 12.9 0.00 0.00 0.00 46 1011.4
20260507235604 12 283 4.8 14.5 0.00 0.00 0.00 45 1011.4
20260507235104 12 278 8.0 14.5 0.00 0.00 0.00 45 1011.4
20260507234605 12 275 12.9 19.3 0.00 0.00 0.00 45 1011.4
20260507234105 12 268 4.8 11.3 0.00 0.00 0.00 44 1011.3
20260507233604 12 266 6.4 19.3 0.00 0.00 0.00 44 1011.3
20260507232604 12 290 4.8 8.0 0.00 0.00 0.00 44 1011.2
20260507232103 12 282 8.0 16.1 0.00 0.00 0.00 43 1011.3
20260507231604 12 293 9.7 19.3 0.00 0.00 0.00 42 1011.3
20260507230104 13 316 6.4 12.9 0.00 0.00 0.00 42 1011.4
20260507225604 13 271 9.7 19.3 0.00 0.00 0.00 43 1011.4
20260507225105 12 310 8.0 12.9 0.00 0.00 0.00 44 1011.4
20260507224604 12 281 12.9 20.9 0.00 0.00 0.00 41 1011.4
20260507224103 13 299 11.3 19.3 0.00 0.00 0.00 42 1011.5
20260507223104 13 276 8.0 16.1 0.00 0.00 0.00 42 1011.5
20260507222604 13 270 8.0 14.5 0.00 0.00 0.00 42 1011.5
20260507221604 13 298 14.5 20.9 0.00 0.00 0.00 40 1011.4
20260507221104 13 301 9.7 24.1 0.00 0.00 0.00 41 1011.4
20260507220604 13 292 11.3 24.1 0.00 0.00 0.00 41 1011.5
20260507220104 13 320 9.7 16.1 0.00 0.00 0.00 42 1011.5
20260507215604 13 275 9.7 19.3 0.00 0.00 0.00 42 1011.5
20260507215105 13 295 11.3 20.9 0.00 0.00 0.00 42 1011.6
20260507214604 13 275 11.3 22.5 0.00 0.00 0.00 40 1011.6